User: anonymous
Location: Vancouver
(49.2500°N, 123.1330°W)
Time: 16:43:22
(UTC-07:00)
Language:

Cosmos 1864 Rocket - Orbit

View from above orbital plane
View from above orbital plane
View from above satellite
View from above satellite

Ground track
Ground track

The orbit data is extracted from the following two-line orbital elements,

1 18161U 87057B   14243.71310410  .00000093  00000-0  79373-4 0  5479
2 18161 082.9326 111.2761 0029860 289.6297 130.6381 13.76858194343796
Epoch (UTC): 31 August 2014 17:06:52
Eccentricity: 0.0029860
inclination: 82.9326°
perigee height: 953 km
apogee height: 997 km
right ascension of ascending node: 111.2761°
argument of perigee: 289.6297°
revolutions per day: 13.76858194
mean anomaly at epoch: 130.6381°
orbit number at epoch: 34379

The dashed part of the orbit path shows where the satellite is in the earth's shadow,  

DLR